Flag for Czech Republic Weather past 2 weeks in Brno, Czech Republic

Now
39 °F

Overcast.


Feels Like: 35 °F
Forecast: 36 / 49 °F
Wind: 5 mph from Northeast

Location: Brno / Turany

Current Time: Oct 25, 2014 at 3:43:14 AM

Latest Report: Oct 25, 2014 at 3:00 AM


Visibility: 8 mi

Pressure: 30.25 "Hg

Humidity: 85%

Dew point: 35 °F

Location of BrnoLocation

Historic Weather in Brno — Graph

°F

Brno temperature yesterday

Maximum temperature yesterday: 53 °F (at 2:00 PM)
Minimum temperature yesterday: 40 °F (at 11:00 PM)
Average temperature yesterday: 46 °F

Past Weeks' High & Low Weather Summary

 TemperatureHumidityPressure
High71 °F (Oct 12, 4:00 PM)99% (Oct 20, 4:00 AM)30.34 "Hg (Oct 20, 4:00 AM)
Low39 °F (Oct 25, 2:00 AM)53% (Oct 21, 3:00 PM)29.57 "Hg (Oct 22, 1:00 AM)
Average54 °F84%29.96 "Hg
* Reported Oct 10 2:00 AM — Oct 25 2:00 AM, Brno, Weather by CustomWeather, © 2014

Note: Actual official high and low records may vary slightly from our data, if they occured in-between our weather recording intervals... More about our weather records

Advertising

Brno weather history for previous 24 hours

 ConditionsComfort  
Time TempWeatherWind HumidityBarometerVisibility
2:00 AM
Oct 25
39 °FOvercast.6 mph82%30.25 "Hg7 mi
1:00 AM39 °FOvercast.6 mph77%30.26 "Hg9 mi
12:00 AM40 °FOvercast.5 mph75%30.26 "Hg9 mi
11:00 PM
Oct 24
40 °FOvercast.6 mph73%30.26 "Hg7 mi
10:00 PM41 °FOvercast.5 mph75%30.25 "Hg9 mi
9:00 PM40 °FOvercast.6 mph76%30.23 "Hg9 mi
8:00 PM41 °FOvercast.7 mph75%30.22 "Hg9 mi
7:00 PM42 °FOvercast.8 mph75%30.21 "Hg9 mi
6:00 PM45 °FOvercast.6 mph70%30.19 "Hg11 mi
5:00 PM47 °FPassing clouds.6 mph65%30.17 "Hg12 mi
4:00 PM51 °FPassing clouds.7 mph59%30.15 "Hg16 mi
3:00 PM53 °FPassing clouds.9 mph56%30.14 "Hg16 mi
2:00 PM53 °FPassing clouds.8 mph54%30.16 "Hg16 mi
1:00 PM52 °FPassing clouds.7 mph60%30.18 "Hg16 mi
12:00 PM51 °FPassing clouds.8 mph63%30.19 "Hg16 mi
11:00 AM49 °FScattered clouds.10 mph68%30.19 "Hg12 mi
10:00 AM47 °FOvercast.5 mph72%30.19 "Hg16 mi
9:00 AM46 °FOvercast.7 mph75%30.19 "Hg16 mi
8:00 AM45 °FScattered clouds.5 mph76%30.17 "Hg16 mi
7:00 AM45 °FPassing clouds.6 mph77%30.15 "Hg16 mi
6:00 AM45 °FPassing clouds.7 mph76%30.14 "Hg12 mi
5:00 AM46 °FPassing clouds.9 mph75%30.13 "Hg12 mi
4:00 AM46 °FOvercast.8 mph75%30.13 "Hg12 mi
3:00 AM46 °FOvercast.5 mph77%30.13 "Hg12 mi
Weather by CustomWeather, © 2014

See weather overviewHow to use our weather pages